API VERSION: 1.2 API SOURCE: NASA/JPL Horizons API ******************************************************************************* JPL/HORIZONS 81P/Wild 2 2025-Dec-12 17:52:05 Rec #:90000861 (+COV) Soln.date: 2024-Sep-12_12:06:16 # obs: 2795 (2014-2024) IAU76/J2000 helio. ecliptic osc. elements (au, days, deg., period=Julian yrs): EPOCH= 2458808.5 ! 2019-Nov-21.0000000 (TDB) RMSW= n.a. EC= .5373989073846863 QR= 1.595856073147981 TP= 2459929.2845797744 OM= 136.1102208500619 W= 41.72523085114398 IN= 3.237004173608168 A= 3.449745576963111 MA= 187.5966814227695 ADIST= 5.303635080778241 PER= 6.4075027611871 N= .153823778 ANGMOM= .02694459 DAN= 1.75112 DDN= 4.09652 L= 177.7900103 B= 2.1537788 MOID= .601515 TP= 2022-Dec-15.7845797744 Comet physical (GM= km^3/s^2; RAD= km): GM= n.a. RAD= 2. M1= 9.8 M2= 12.9 k1= 12.5 k2= 5. PHCOF= .030 Comet non-gravitational force model (AMRAT=m^2/kg;A1-A3=au/d^2;DT=days;R0=au): AMRAT= 0. DT= -127.4855 A1= 2.756873071194E-9 A2= 3.070332854986E-10 A3= -1.044902577996E-9 Standard model: ALN= .1112620426 NK= 4.6142 NM= 2.15 NN= 5.093 R0= 2.808 COMET comments 1: soln ref.= JPL#K222/37, data arc: 2014-10-17 to 2024-09-07 2: k1=12.5, k2=5., phase coef.=0.03; ******************************************************************************* ******************************************************************************* Ephemeris / API_USER Fri Dec 12 17:52:06 2025 Pasadena, USA / Horizons ******************************************************************************* Target body name: 81P/Wild 2 {source: JPL#K222/37} Center body name: Earth (399) {source: DE441} Center-site name: GEOCENTRIC ******************************************************************************* Start time : A.D. 2029-May-14 00:00:00.0000 UT Stop time : A.D. 2029-May-16 00:00:00.0000 UT Step-size : 180 minutes ******************************************************************************* Target pole/equ : undefined Target radii : 2. km Center geodetic : 0.0, 0.0, -6378.137 {E-lon(deg),Lat(deg),Alt(km)} Center cylindric: 0.0, 0.0, 0.0 {E-lon(deg),Dxy(km),Dz(km)} Center pole/equ : ITRF93 {East-longitude positive} Center radii : 6378.137, 6378.137, 6356.752 km {Equator_a, b, pole_c} Target primary : Sun Vis. interferer : MOON (R_eq= 1737.400) km {source: DE441} Rel. light bend : Sun {source: DE441} Rel. lght bnd GM: 1.3271E+11 km^3/s^2 Small-body perts: Yes {source: SB441-N16} Atmos refraction: NO (AIRLESS) RA format : HMS Time format : CAL Calendar mode : Mixed Julian/Gregorian EOP file : eop.251212.p260310 EOP coverage : DATA-BASED 1962-JAN-20 TO 2025-DEC-12. PREDICTS-> 2026-MAR-09 Units conversion: 1 au= 149597870.700 km, c= 299792.458 km/s, 1 day= 86400.0 s Table cut-offs 1: Elevation (-90.0deg=NO ),Airmass (>38.000=NO), Daylight (NO ) Table cut-offs 2: Solar elongation ( 0.0,180.0=NO ),Local Hour Angle( 0.0=NO ) Table cut-offs 3: RA/DEC angular rate ( 0.0=NO ) ******************************************************************************* Initial IAU76/J2000 heliocentric ecliptic osculating elements (au, days, deg.): EPOCH= 2458808.5 ! 2019-Nov-21.0000000 (TDB) RMSW= n.a. EC= .5373989073846863 QR= 1.595856073147981 TP= 2459929.2845797744 OM= 136.1102208500619 W= 41.72523085114398 IN= 3.237004173608168 Equivalent ICRF heliocentric cartesian coordinates (au, au/d): X= 5.292394696483091E+00 Y= 1.258870392705542E-01 Z=-1.736573032540528E-01 VX=-3.318040587508859E-04 VY= 4.738142539674580E-03 VZ= 1.842731437986439E-03 Comet physical (GM= km^3/s^2; RAD= km): GM= n.a. RAD= 2. M1= 9.8 M2= 12.9 k1= 12.5 k2= 5. PHCOF= .030 Comet non-gravitational force model (AMRAT=m^2/kg;A1-A3=au/d^2;DT=days;R0=au): AMRAT= 0. DT= -127.4855 A1= 2.756873071194E-9 A2= 3.070332854986E-10 A3= -1.044902577996E-9 Standard model: ALN= .1112620426 NK= 4.6142 NM= 2.15 NN= 5.093 R0= 2.808 ******************************************************************************* Date__(UT)__HR:MN r rdot ************************************************** $$SOE 2029-May-14 00:00 1.590532332045 -0.0547066 2029-May-14 03:00 1.590528874960 -0.0410696 2029-May-14 06:00 1.590526402348 -0.0274324 2029-May-14 09:00 1.590524914218 -0.0137952 2029-May-14 12:00 1.590524410573 -0.0001579 2029-May-14 15:00 1.590524891417 0.0134794 2029-May-14 18:00 1.590526356748 0.0271166 2029-May-14 21:00 1.590528806561 0.0407538 2029-May-15 00:00 1.590532240851 0.0543908 2029-May-15 03:00 1.590536659608 0.0680278 2029-May-15 06:00 1.590542062818 0.0816645 2029-May-15 09:00 1.590548450466 0.0953009 2029-May-15 12:00 1.590555822532 0.1089371 2029-May-15 15:00 1.590564178996 0.1225730 2029-May-15 18:00 1.590573519833 0.1362085 2029-May-15 21:00 1.590583845015 0.1498436 2029-May-16 00:00 1.590595154511 0.1634783 $$EOE ******************************************************************************* Column meaning: TIME Times PRIOR to 1962 are UT1, a mean-solar time closely related to the prior but now-deprecated GMT. Times AFTER 1962 are in UTC, the current civil or "wall-clock" time-scale. UTC is kept within 0.9 seconds of UT1 using integer leap-seconds for 1972 and later years. Conversion from the internal Barycentric Dynamical Time (TDB) of solar system dynamics to the non-uniform civil UT time-scale requested for output has not been determined for UTC times after the next July or January 1st. Therefore, the last known leap-second is used as a constant over future intervals. Time tags refer to the UT time-scale conversion from TDB on Earth regardless of observer location within the solar system, although clock rates may differ due to the local gravity field and no analog to "UT" may be defined for that location. Any 'b' symbol in the 1st-column denotes a B.C. date. First-column blank (" ") denotes an A.D. date. CALENDAR SYSTEM Mixed calendar mode was active such that calendar dates after AD 1582-Oct-15 (if any) are in the modern Gregorian system. Dates prior to 1582-Oct-5 (if any) are in the Julian calendar system, which is automatically extended for dates prior to its adoption on 45-Jan-1 BC. The Julian calendar is useful for matching historical dates. The Gregorian calendar more accurately corresponds to the Earth's orbital motion and seasons. A "Gregorian-only" calendar mode is available if such physical events are the primary interest. NOTE: "n.a." in output means quantity "not available" at the print-time. 'r rdot' = The Sun's apparent range ("r", light-time aberrated) and range-rate ("rdot") relative to the target center, as seen by the observer. A positive "rdot" means the target center was moving away from the Sun, negative means moving toward the Sun. Units: AU and KM/S Computations by ... Solar System Dynamics Group, Horizons On-Line Ephemeris System 4800 Oak Grove Drive, Jet Propulsion Laboratory Pasadena, CA 91109 USA General site: https://ssd.jpl.nasa.gov/ Mailing list: https://ssd.jpl.nasa.gov/email_list.html System news : https://ssd.jpl.nasa.gov/horizons/news.html User Guide : https://ssd.jpl.nasa.gov/horizons/manual.html Connect : browser https://ssd.jpl.nasa.gov/horizons/app.html#/x API https://ssd-api.jpl.nasa.gov/doc/horizons.html command-line telnet ssd.jpl.nasa.gov 6775 e-mail/batch https://ssd.jpl.nasa.gov/ftp/ssd/horizons_batch.txt scripts https://ssd.jpl.nasa.gov/ftp/ssd/SCRIPTS Author : Jon.D.Giorgini@jpl.nasa.gov *******************************************************************************